STARLINK-2032, 47649

Orbit data source: Space-Track

STARLINK-2032, 47649 is a payload satellite owned by SpaceX/Seattle (US) in LEO that was launched on Tue, 16 Feb 2021 UTC via an FALCON 9 launch vehicle from the Air Force Eastern Test Range (AFETR). Payload-class satellites include a variety of spacecraft equipped with specific instruments for various scientific and technological missions. These include communications satellites like Starlink; space stations such as the ISS; scientific satellites like the Hubble; Earth observation satellites from companies like Planet Labs, Umbra, and HawkEye 360; GPS; miniature CubeSats for education and research; and military/defense satellites.

Loading next visibility...
Identifier
47649, 2021-012AF
Orbit
LEO
Country
Flag of USUS
Related business
Manufacturer
SpaceX/Seattle
Mission
Partially operational Commercial Communications
Bus & Motor
STARLINK, Unknown motor
Mass
260 kg wet, ~248 kg dry
Launch date (UTC)
2021-02-16 (5 years ago)
Launch vehicle
FALCON 9
Launch site
Air Force Eastern Test Range (AFETR)
Object type
Payload
Rocket body
Debris
Shape & HBR
Box + 1 Pan, 10.1 m
Radar Cross Section
13.562 m², Large (>1 m²)

Expand to show TLE details & history
Last TLE update: 21 hours ago

TLE from 21 hours ago
0 STARLINK-2032
1 47649U 21012AF  25346.33349537  .00091463  00000-0  22956-2 0  9992
2 47649  53.0510  74.0776 0005253 318.2588  11.8254 15.39255452  5879
Epoch: 2025-12-12T08:00Z
TLE epoch observation values (Epoch: 2025-12-12T08:00:13.999Z)
Latitude
-23.67335°
Longitude
-146.40043°
Altitude
451.59 km
Speed
7.643 km/s
True Right ascension
03h 39m 44s
True Declination
-23° 32' 29"
Sunlit
Object was in full shadow at epoch
Visualization orbit readout
Latitude
Unknown
Longitude
Unknown
Altitude
Unknown
Speed
Unknown
Apparent Right ascension
Unknown
Apparent Declination
Unknown
Sunlit
N/A
Visualization observer readout
Local Sidereal Time
03:27:54
Azimuth
Unknown
Elevation
Unknown
Doppler factor
Unknown
Orbital elements
Apogee altitude
452.171 km
Perigee altitude
444.999 km
Semi-major axis
6,826.722 km
Eccentricity
0.00053
Inclination
53.051°
RAAN
74.0776°
Arg. of periapsis
318.2588°
True anomaly
11.83774°
Mean anomaly
11.8254°
Eccentric anomaly
11.83157°
Mean motion
3.84791 °/min
Orbital period
93.56 mins
BSTAR
0.0022956
Loading maneuver chart data...
Computing Atmospheric mass density...

Documentation

Showing up to 5 results
|